sat.trackr.live / text

‹ back to catalog

GEESAT-2 07

NORAD 58911 · 2024-023G

PAYLOAD ACTIVE UNKNOWN

§ Identity

Operator
Country
PRC
Launch date
2024-02-02
Launch site
XICLF
Launch vehicle
Mass (kg)
RCS (m²)

External: N2YO · Heavens-Above · Gunter

§ Orbital elements

Epoch: 2026-05-25T03:29:47.576256Z

Period
97.09 min
Inclination
50.0054°
Eccentricity
0.0010687
Mean motion
14.83159797 rev/d
Perigee alt
611.9 km
Apogee alt
626.8 km
Semi-major
6,997.5 km
B*
2.0839e-4
RAAN
101.4351°
Arg perigee
330.7473°
Mean anomaly
29.2866°
Rev number
12,549

§ Raw data

GEESAT-2 071 58911U 24023G   26145.14568954  .00001492  00000+0  20839-3 0  99952 58911  50.0054 101.4351 0010687 330.7473  29.2866 14.83159797125492

JSON: /api/v1/satellites/58911 · /tle

For live sub-satellite position, see the globe view (requires WebGL).

§ Visibility from observer

Set your observer location to see the next 7 days of passes ≥ 10°. The values pass through the URL so the page stays shareable.

No JS? Fill the form by hand. The geolocation button needs JavaScript.